owner,sensor,date,latitude,longitude,vertical_datum,direction_of_sea_water_velocity,sea_water_speed,upward_sea_water_velocity,qcFlag 
TABS,ioos:station:wmo:42048:1,2014-12-01T00:00:00Z,27.9396,-96.8429,2.0,36.12425545,7.836663831,-99999.0,'11133222,11111222,99999999' 
TABS,ioos:station:wmo:42048:1,2014-12-01T00:30:00Z,27.9396,-96.8429,2.0,39.47838186,8.965288618,-99999.0,'11133222,11111222,99999999' 
TABS,ioos:station:wmo:42048:1,2014-12-01T01:00:00Z,27.9396,-96.8429,2.0,35.38198381,8.548882968,-99999.0,'11133222,11111222,99999999' 
TABS,ioos:station:wmo:42048:1,2014-12-01T01:30:00Z,27.9396,-96.8429,2.0,50.52246347,10.06642439,-99999.0,'11111222,11111222,99999999' 
TABS,ioos:station:wmo:42048:1,2014-12-01T02:00:00Z,27.9396,-96.8429,2.0,47.14307149,10.96782567,-99999.0,'11111222,11111222,99999999' 
TABS,ioos:station:wmo:42048:1,2014-12-01T02:30:00Z,27.9396,-96.8429,2.0,28.3845289,7.888352173,-99999.0,'11133222,11111222,99999999' 
TABS,ioos:station:wmo:42048:1,2014-12-01T03:00:00Z,27.9396,-96.8429,2.0,30.71969994,10.86453404,-99999.0,'11111222,11111222,99999999' 
TABS,ioos:station:wmo:42048:1,2014-12-01T03:30:00Z,27.9396,-96.8429,2.0,46.8677797,9.112376199,-99999.0,'11133222,11111222,99999999' 
TABS,ioos:station:wmo:42048:1,2014-12-01T04:00:00Z,27.9396,-96.8429,2.0,32.79330686,10.09955445,-99999.0,'11111222,11111222,99999999' 
TABS,ioos:station:wmo:42048:1,2014-12-01T04:30:00Z,27.9396,-96.8429,2.0,50.50515035,11.57214328,-99999.0,'11111222,11111222,99999999' 
TABS,ioos:station:wmo:42048:1,2014-12-01T05:00:00Z,27.9396,-96.8429,2.0,52.61593312,11.36445775,-99999.0,'11111222,11111222,99999999' 
TABS,ioos:station:wmo:42048:1,2014-12-01T05:30:00Z,27.9396,-96.8429,2.0,59.58400053,12.9178636,-99999.0,'11111222,11111222,99999999' 
TABS,ioos:station:wmo:42048:1,2014-12-01T06:00:00Z,27.9396,-96.8429,2.0,54.09352605,10.11142918,-99999.0,'11111222,11111222,99999999' 
TABS,ioos:station:wmo:42048:1,2014-12-01T06:30:00Z,27.9396,-96.8429,2.0,52.06331638,11.38597383,-99999.0,'11111222,11111222,99999999' 
TABS,ioos:station:wmo:42048:1,2014-12-01T07:00:00Z,27.9396,-96.8429,2.0,54.82080739,10.77869194,-99999.0,'11111222,11111222,99999999' 
TABS,ioos:station:wmo:42048:1,2014-12-01T07:30:00Z,27.9396,-96.8429,2.0,57.71809758,12.07669657,-99999.0,'11111222,11111222,99999999' 
TABS,ioos:station:wmo:42048:1,2014-12-01T08:00:00Z,27.9396,-96.8429,2.0,52.75359308,10.95423662,-99999.0,'11111222,11111222,99999999' 
TABS,ioos:station:wmo:42048:1,2014-12-01T08:30:00Z,27.9396,-96.8429,2.0,53.26383362,12.00403266,-99999.0,'11111222,11111222,99999999' 
TABS,ioos:station:wmo:42048:1,2014-12-01T09:00:00Z,27.9396,-96.8429,2.0,49.7375375,10.27400603,-99999.0,'11111222,11111222,99999999' 
TABS,ioos:station:wmo:42048:1,2014-12-01T09:30:00Z,27.9396,-96.8429,2.0,59.57281092,10.62308806,-99999.0,'11111222,11111222,99999999' 
TABS,ioos:station:wmo:42048:1,2014-12-01T10:00:00Z,27.9396,-96.8429,2.0,65.02955288,10.44648266,-99999.0,'11111222,11111222,99999999' 
TABS,ioos:station:wmo:42048:1,2014-12-01T10:30:00Z,27.9396,-96.8429,2.0,53.15942601,11.75800153,-99999.0,'11111222,11111222,99999999' 
TABS,ioos:station:wmo:42048:1,2014-12-01T11:00:00Z,27.9396,-96.8429,2.0,63.24434394,8.063305774,-99999.0,'11133222,11111222,99999999' 
TABS,ioos:station:wmo:42048:1,2014-12-01T11:30:00Z,27.9396,-96.8429,2.0,74.6160874,8.971449158,-99999.0,'11133222,11111222,99999999' 
TABS,ioos:station:wmo:42048:1,2014-12-01T12:00:00Z,27.9396,-96.8429,2.0,66.6022908,7.932269537,-99999.0,'11133222,11111222,99999999' 
TABS,ioos:station:wmo:42048:1,2014-12-01T12:30:00Z,27.9396,-96.8429,2.0,63.51409391,6.480131172,-99999.0,'11133222,11111222,99999999' 
TABS,ioos:station:wmo:42048:1,2014-12-01T13:00:00Z,27.9396,-96.8429,2.0,68.01227697,9.134402006,-99999.0,'11133222,11111222,99999999' 
TABS,ioos:station:wmo:42048:1,2014-12-01T13:30:00Z,27.9396,-96.8429,2.0,47.65429454,6.413267498,-99999.0,'11133222,11111222,99999999' 
TABS,ioos:station:wmo:42048:1,2014-12-01T14:00:00Z,27.9396,-96.8429,2.0,61.92316014,7.627647082,-99999.0,'11133222,11111222,99999999' 
TABS,ioos:station:wmo:42048:1,2014-12-01T14:30:00Z,27.9396,-96.8429,2.0,66.86806719,9.036514815,-99999.0,'11133222,11111222,99999999' 
TABS,ioos:station:wmo:42048:1,2014-12-01T15:00:00Z,27.9396,-96.8429,2.0,57.74444186,5.096518419,-99999.0,'11133222,11111222,99999999' 
TABS,ioos:station:wmo:42048:1,2014-12-01T15:30:00Z,27.9396,-96.8429,2.0,28.16563613,6.885303189,-99999.0,'11133222,11111222,99999999' 
TABS,ioos:station:wmo:42048:1,2014-12-01T16:00:00Z,27.9396,-96.8429,2.0,51.19018673,6.557758763,-99999.0,'11133222,11111222,99999999' 
TABS,ioos:station:wmo:42048:1,2014-12-01T16:30:00Z,27.9396,-96.8429,2.0,26.67967618,4.476617026,-99999.0,'11133222,11111222,99999999' 
TABS,ioos:station:wmo:42048:1,2014-12-01T17:00:00Z,27.9396,-96.8429,2.0,42.68638814,2.802427519,-99999.0,'11133222,11111222,99999999' 
TABS,ioos:station:wmo:42048:1,2014-12-01T17:30:00Z,27.9396,-96.8429,2.0,5.208476783,3.745463923,-99999.0,'11133222,11111222,99999999' 
TABS,ioos:station:wmo:42048:1,2014-12-01T18:00:00Z,27.9396,-96.8429,2.0,38.32748688,6.99826407,-99999.0,'11133222,11111222,99999999' 
TABS,ioos:station:wmo:42048:1,2014-12-01T18:30:00Z,27.9396,-96.8429,2.0,22.76298052,4.316167281,-99999.0,'11133222,11111222,99999999' 
TABS,ioos:station:wmo:42048:1,2014-12-01T19:00:00Z,27.9396,-96.8429,2.0,3.873691125,3.848792018,-99999.0,'11133222,11111222,99999999' 
TABS,ioos:station:wmo:42048:1,2014-12-01T19:30:00Z,27.9396,-96.8429,2.0,63.73342307,0.858661749,-99999.0,'11133222,11111222,99999999' 
TABS,ioos:station:wmo:42048:1,2014-12-01T20:00:00Z,27.9396,-96.8429,2.0,288.623489,3.85167496,-99999.0,'11133222,11111222,99999999' 
TABS,ioos:station:wmo:42048:1,2014-12-01T20:30:00Z,27.9396,-96.8429,2.0,286.0956806,4.725219572,-99999.0,'11133222,11111222,99999999' 
TABS,ioos:station:wmo:42048:1,2014-12-01T21:00:00Z,27.9396,-96.8429,2.0,251.1695373,6.878117475,-99999.0,'11133222,11111222,99999999' 
TABS,ioos:station:wmo:42048:1,2014-12-01T21:30:00Z,27.9396,-96.8429,2.0,209.2182546,11.88178859,-99999.0,'11111222,11111222,99999999' 
TABS,ioos:station:wmo:42048:1,2014-12-01T22:00:00Z,27.9396,-96.8429,2.0,204.092409,12.95889656,-99999.0,'11111222,11111222,99999999' 
TABS,ioos:station:wmo:42048:1,2014-12-01T22:30:00Z,27.9396,-96.8429,2.0,211.3995821,15.5467971,-99999.0,'11111222,11111222,99999999' 
TABS,ioos:station:wmo:42048:1,2014-12-01T23:00:00Z,27.9396,-96.8429,2.0,199.5464814,17.27561287,-99999.0,'11111222,11111222,99999999' 
TABS,ioos:station:wmo:42048:1,2014-12-01T23:30:00Z,27.9396,-96.8429,2.0,207.283933,21.37849387,-99999.0,'11111222,11111222,99999999' 
TABS,ioos:station:wmo:42048:1,2014-12-02T00:00:00Z,27.9396,-96.8429,2.0,211.2367698,22.29163969,-99999.0,'11111222,11111222,99999999' 
TABS,ioos:station:wmo:42048:1,2014-12-02T00:30:00Z,27.9396,-96.8429,2.0,205.0591583,26.04129413,-99999.0,'11111222,11111222,99999999' 
TABS,ioos:station:wmo:42048:1,2014-12-02T01:00:00Z,27.9396,-96.8429,2.0,217.2829549,24.11862766,-99999.0,'11111222,11111222,99999999' 
TABS,ioos:station:wmo:42048:1,2014-12-02T01:30:00Z,27.9396,-96.8429,2.0,219.5563338,25.34385922,-99999.0,'11111222,11111222,99999999' 
TABS,ioos:station:wmo:42048:1,2014-12-02T02:00:00Z,27.9396,-96.8429,2.0,221.4003913,28.60940405,-99999.0,'11111222,11111222,99999999' 
TABS,ioos:station:wmo:42048:1,2014-12-02T02:30:00Z,27.9396,-96.8429,2.0,220.9714301,32.2105076,-99999.0,'11111222,11111222,99999999' 
TABS,ioos:station:wmo:42048:1,2014-12-02T03:00:00Z,27.9396,-96.8429,2.0,221.4308239,33.85120973,-99999.0,'11111222,11111222,99999999' 
TABS,ioos:station:wmo:42048:1,2014-12-02T03:30:00Z,27.9396,-96.8429,2.0,222.8766884,31.49494086,-99999.0,'11111222,11111222,99999999' 
TABS,ioos:station:wmo:42048:1,2014-12-02T04:00:00Z,27.9396,-96.8429,2.0,221.5957297,32.98816303,-99999.0,'11111222,11111222,99999999' 
TABS,ioos:station:wmo:42048:1,2014-12-02T04:30:00Z,27.9396,-96.8429,2.0,224.649339,30.06674242,-99999.0,'11111222,11111222,99999999' 
TABS,ioos:station:wmo:42048:1,2014-12-02T05:00:00Z,27.9396,-96.8429,2.0,221.6947154,32.50318907,-99999.0,'11111222,11111222,99999999' 
TABS,ioos:station:wmo:42048:1,2014-12-02T05:30:00Z,27.9396,-96.8429,2.0,222.1182894,29.82103955,-99999.0,'11111222,11111222,99999999' 
TABS,ioos:station:wmo:42048:1,2014-12-02T06:00:00Z,27.9396,-96.8429,2.0,223.392987,32.53263131,-99999.0,'11111222,11111222,99999999' 
TABS,ioos:station:wmo:42048:1,2014-12-02T06:30:00Z,27.9396,-96.8429,2.0,213.6991779,33.81175092,-99999.0,'11111222,11111222,99999999' 
TABS,ioos:station:wmo:42048:1,2014-12-02T07:00:00Z,27.9396,-96.8429,2.0,217.9783693,35.86471525,-99999.0,'11111222,11111222,99999999' 
TABS,ioos:station:wmo:42048:1,2014-12-02T07:30:00Z,27.9396,-96.8429,2.0,215.535436,34.1872681,-99999.0,'11111222,11111222,99999999' 
TABS,ioos:station:wmo:42048:1,2014-12-02T08:00:00Z,27.9396,-96.8429,2.0,222.8135161,33.18038728,-99999.0,'11111222,11111222,99999999' 
TABS,ioos:station:wmo:42048:1,2014-12-02T08:30:00Z,27.9396,-96.8429,2.0,219.5666804,34.12980662,-99999.0,'11111222,11111222,99999999' 
TABS,ioos:station:wmo:42048:1,2014-12-02T09:00:00Z,27.9396,-96.8429,2.0,219.5037814,34.55251076,-99999.0,'11111222,11111222,99999999' 
TABS,ioos:station:wmo:42048:1,2014-12-02T09:30:00Z,27.9396,-96.8429,2.0,218.7243073,35.90280908,-99999.0,'11111222,11111222,99999999' 
TABS,ioos:station:wmo:42048:1,2014-12-02T10:00:00Z,27.9396,-96.8429,2.0,223.8836765,37.03113555,-99999.0,'11111222,11111222,99999999' 
TABS,ioos:station:wmo:42048:1,2014-12-02T10:30:00Z,27.9396,-96.8429,2.0,218.8741149,37.10870787,-99999.0,'11111222,11111222,99999999' 
TABS,ioos:station:wmo:42048:1,2014-12-02T11:00:00Z,27.9396,-96.8429,2.0,220.5793289,31.56012991,-99999.0,'11111222,11111222,99999999' 
TABS,ioos:station:wmo:42048:1,2014-12-02T11:30:00Z,27.9396,-96.8429,2.0,228.1537072,31.35818872,-99999.0,'11111222,11111222,99999999' 
TABS,ioos:station:wmo:42048:1,2014-12-02T12:00:00Z,27.9396,-96.8429,2.0,221.3845033,32.52091635,-99999.0,'11111222,11111222,99999999' 
TABS,ioos:station:wmo:42048:1,2014-12-02T12:30:00Z,27.9396,-96.8429,2.0,220.5028243,32.28689208,-99999.0,'11111222,11111222,99999999' 
TABS,ioos:station:wmo:42048:1,2014-12-02T13:00:00Z,27.9396,-96.8429,2.0,233.3766636,29.70427579,-99999.0,'11111222,11111222,99999999' 
TABS,ioos:station:wmo:42048:1,2014-12-02T13:30:00Z,27.9396,-96.8429,2.0,223.0781175,28.25773522,-99999.0,'11111222,11111222,99999999' 
TABS,ioos:station:wmo:42048:1,2014-12-02T14:00:00Z,27.9396,-96.8429,2.0,230.118695,28.21295093,-99999.0,'11111222,11111222,99999999' 
TABS,ioos:station:wmo:42048:1,2014-12-02T14:30:00Z,27.9396,-96.8429,2.0,225.2588272,32.83130366,-99999.0,'11111222,11111222,99999999' 
TABS,ioos:station:wmo:42048:1,2014-12-02T15:00:00Z,27.9396,-96.8429,2.0,225.2354675,30.9291125,-99999.0,'11111222,11111222,99999999' 
TABS,ioos:station:wmo:42048:1,2014-12-02T15:30:00Z,27.9396,-96.8429,2.0,226.7635371,33.99966176,-99999.0,'11111222,11111222,99999999' 
TABS,ioos:station:wmo:42048:1,2014-12-02T16:00:00Z,27.9396,-96.8429,2.0,227.8455645,30.62013227,-99999.0,'11111222,11111222,99999999' 
TABS,ioos:station:wmo:42048:1,2014-12-02T16:30:00Z,27.9396,-96.8429,2.0,224.3066256,31.56755613,-99999.0,'11111222,11111222,99999999' 
TABS,ioos:station:wmo:42048:1,2014-12-02T17:00:00Z,27.9396,-96.8429,2.0,221.9008295,34.13953866,-99999.0,'11111222,11111222,99999999' 
TABS,ioos:station:wmo:42048:1,2014-12-02T17:30:00Z,27.9396,-96.8429,2.0,223.0203264,31.52748959,-99999.0,'11111222,11111222,99999999' 
TABS,ioos:station:wmo:42048:1,2014-12-02T18:00:00Z,27.9396,-96.8429,2.0,222.9047235,34.43082921,-99999.0,'11111222,11111222,99999999' 
TABS,ioos:station:wmo:42048:1,2014-12-02T18:30:00Z,27.9396,-96.8429,2.0,223.6072712,33.17310356,-99999.0,'11111222,11111222,99999999' 
TABS,ioos:station:wmo:42048:1,2014-12-02T19:00:00Z,27.9396,-96.8429,2.0,227.1352991,35.10394992,-99999.0,'11111222,11111222,99999999' 
TABS,ioos:station:wmo:42048:1,2014-12-02T19:30:00Z,27.9396,-96.8429,2.0,229.0472674,34.16068061,-99999.0,'11111222,11111222,99999999' 
TABS,ioos:station:wmo:42048:1,2014-12-02T20:00:00Z,27.9396,-96.8429,2.0,226.7699259,34.10589538,-99999.0,'11111222,11111222,99999999' 
TABS,ioos:station:wmo:42048:1,2014-12-02T20:30:00Z,27.9396,-96.8429,2.0,228.2673416,32.74986412,-99999.0,'11111222,11111222,99999999' 
TABS,ioos:station:wmo:42048:1,2014-12-02T21:00:00Z,27.9396,-96.8429,2.0,226.774834,31.72896626,-99999.0,'11111222,11111222,99999999' 
TABS,ioos:station:wmo:42048:1,2014-12-02T21:30:00Z,27.9396,-96.8429,2.0,222.9249462,31.05527491,-99999.0,'11111222,11111222,99999999' 
TABS,ioos:station:wmo:42048:1,2014-12-02T22:00:00Z,27.9396,-96.8429,2.0,225.2046244,27.67633646,-99999.0,'11111222,11111222,99999999' 
TABS,ioos:station:wmo:42048:1,2014-12-02T22:30:00Z,27.9396,-96.8429,2.0,223.0516039,28.08129805,-99999.0,'11111222,11111222,99999999' 
TABS,ioos:station:wmo:42048:1,2014-12-02T23:00:00Z,27.9396,-96.8429,2.0,220.3251526,26.81074598,-99999.0,'11111222,11111222,99999999' 
TABS,ioos:station:wmo:42048:1,2014-12-02T23:30:00Z,27.9396,-96.8429,2.0,222.6895322,29.82171692,-99999.0,'11111222,11111222,99999999' 
TABS,ioos:station:wmo:42048:1,2014-12-03T00:00:00Z,27.9396,-96.8429,2.0,222.8114733,28.14923445,-99999.0,'11111222,11111222,99999999' 
TABS,ioos:station:wmo:42048:1,2014-12-03T00:30:00Z,27.9396,-96.8429,2.0,221.7434219,27.63592589,-99999.0,'11111222,11111222,99999999' 
TABS,ioos:station:wmo:42048:1,2014-12-03T01:00:00Z,27.9396,-96.8429,2.0,225.3229087,28.82920221,-99999.0,'11111222,11111222,99999999' 
TABS,ioos:station:wmo:42048:1,2014-12-03T01:30:00Z,27.9396,-96.8429,2.0,225.4825811,28.52570069,-99999.0,'11111222,11111222,99999999' 
TABS,ioos:station:wmo:42048:1,2014-12-03T02:00:00Z,27.9396,-96.8429,2.0,229.428388,26.92215816,-99999.0,'11111222,11111222,99999999' 
TABS,ioos:station:wmo:42048:1,2014-12-03T02:30:00Z,27.9396,-96.8429,2.0,226.5533427,31.81736004,-99999.0,'11111222,11111222,99999999' 
TABS,ioos:station:wmo:42048:1,2014-12-03T03:00:00Z,27.9396,-96.8429,2.0,224.3746657,35.00386836,-99999.0,'11111222,11111222,99999999' 
TABS,ioos:station:wmo:42048:1,2014-12-03T03:30:00Z,27.9396,-96.8429,2.0,228.9912133,30.06840535,-99999.0,'11111222,11111222,99999999' 
TABS,ioos:station:wmo:42048:1,2014-12-03T04:00:00Z,27.9396,-96.8429,2.0,228.6968165,27.19535622,-99999.0,'11111222,11111222,99999999' 
TABS,ioos:station:wmo:42048:1,2014-12-03T04:30:00Z,27.9396,-96.8429,2.0,234.9593564,26.24738082,-99999.0,'11111222,11111222,99999999' 
TABS,ioos:station:wmo:42048:1,2014-12-03T05:00:00Z,27.9396,-96.8429,2.0,229.4318239,24.15629525,-99999.0,'11111222,11111222,99999999' 
TABS,ioos:station:wmo:42048:1,2014-12-03T05:30:00Z,27.9396,-96.8429,2.0,229.9384595,23.24404655,-99999.0,'11111222,11111222,99999999' 
TABS,ioos:station:wmo:42048:1,2014-12-03T06:00:00Z,27.9396,-96.8429,2.0,228.2356278,24.42706081,-99999.0,'11111222,11111222,99999999' 
TABS,ioos:station:wmo:42048:1,2014-12-03T06:30:00Z,27.9396,-96.8429,2.0,222.7000838,25.20036706,-99999.0,'11111222,11111222,99999999' 
TABS,ioos:station:wmo:42048:1,2014-12-03T07:00:00Z,27.9396,-96.8429,2.0,224.5216626,29.66416188,-99999.0,'11111222,11111222,99999999' 
TABS,ioos:station:wmo:42048:1,2014-12-03T07:30:00Z,27.9396,-96.8429,2.0,226.2378125,30.43391036,-99999.0,'11111222,11111222,99999999' 
TABS,ioos:station:wmo:42048:1,2014-12-03T08:00:00Z,27.9396,-96.8429,2.0,224.7463896,31.98982338,-99999.0,'11111222,11111222,99999999' 
TABS,ioos:station:wmo:42048:1,2014-12-03T08:30:00Z,27.9396,-96.8429,2.0,223.3129939,35.55459183,-99999.0,'11111222,11111222,99999999' 
TABS,ioos:station:wmo:42048:1,2014-12-03T09:00:00Z,27.9396,-96.8429,2.0,223.4849208,33.43662214,-99999.0,'11111222,11111222,99999999' 
TABS,ioos:station:wmo:42048:1,2014-12-03T09:30:00Z,27.9396,-96.8429,2.0,221.222698,34.88664071,-99999.0,'11111222,11111222,99999999' 
TABS,ioos:station:wmo:42048:1,2014-12-03T10:00:00Z,27.9396,-96.8429,2.0,224.2198365,37.92564963,-99999.0,'11111222,11111222,99999999' 
TABS,ioos:station:wmo:42048:1,2014-12-03T10:30:00Z,27.9396,-96.8429,2.0,227.9722407,35.99774437,-99999.0,'11111222,11111222,99999999' 
TABS,ioos:station:wmo:42048:1,2014-12-03T11:00:00Z,27.9396,-96.8429,2.0,223.4775009,30.34558947,-99999.0,'11111222,11111222,99999999' 
TABS,ioos:station:wmo:42048:1,2014-12-03T11:30:00Z,27.9396,-96.8429,2.0,222.1762445,35.31335441,-99999.0,'11111222,11111222,99999999' 
TABS,ioos:station:wmo:42048:1,2014-12-03T12:00:00Z,27.9396,-96.8429,2.0,223.2696863,34.43058088,-99999.0,'11111222,11111222,99999999' 
TABS,ioos:station:wmo:42048:1,2014-12-03T12:30:00Z,27.9396,-96.8429,2.0,226.9377996,32.61628121,-99999.0,'11111222,11111222,99999999' 
TABS,ioos:station:wmo:42048:1,2014-12-03T13:00:00Z,27.9396,-96.8429,2.0,228.3569372,31.03160486,-99999.0,'11111222,11111222,99999999' 
TABS,ioos:station:wmo:42048:1,2014-12-03T13:30:00Z,27.9396,-96.8429,2.0,230.8344597,31.16100127,-99999.0,'11111222,11111222,99999999' 
TABS,ioos:station:wmo:42048:1,2014-12-03T14:00:00Z,27.9396,-96.8429,2.0,223.9083391,29.32903851,-99999.0,'11111222,11111222,99999999' 
TABS,ioos:station:wmo:42048:1,2014-12-03T14:30:00Z,27.9396,-96.8429,2.0,230.8623802,26.23654131,-99999.0,'11111222,11111222,99999999' 
TABS,ioos:station:wmo:42048:1,2014-12-03T15:00:00Z,27.9396,-96.8429,2.0,228.7124052,28.71931232,-99999.0,'11111222,11111222,99999999' 
TABS,ioos:station:wmo:42048:1,2014-12-03T15:30:00Z,27.9396,-96.8429,2.0,233.8498635,25.46201092,-99999.0,'11111222,11111222,99999999' 
TABS,ioos:station:wmo:42048:1,2014-12-03T16:00:00Z,27.9396,-96.8429,2.0,229.9304212,30.60369912,-99999.0,'11111222,11111222,99999999' 
TABS,ioos:station:wmo:42048:1,2014-12-03T16:30:00Z,27.9396,-96.8429,2.0,228.8071121,32.4783882,-99999.0,'11111222,11111222,99999999' 
TABS,ioos:station:wmo:42048:1,2014-12-03T17:00:00Z,27.9396,-96.8429,2.0,231.2902478,34.26765968,-99999.0,'11111222,11111222,99999999' 
TABS,ioos:station:wmo:42048:1,2014-12-03T17:30:00Z,27.9396,-96.8429,2.0,236.2741926,35.91407106,-99999.0,'11111222,11111222,99999999' 
TABS,ioos:station:wmo:42048:1,2014-12-03T18:00:00Z,27.9396,-96.8429,2.0,232.7822526,35.61265505,-99999.0,'11111222,11111222,99999999' 
TABS,ioos:station:wmo:42048:1,2014-12-03T18:30:00Z,27.9396,-96.8429,2.0,227.8241951,32.57355523,-99999.0,'11111222,11111222,99999999' 
TABS,ioos:station:wmo:42048:1,2014-12-03T19:00:00Z,27.9396,-96.8429,2.0,228.9285365,28.17370583,-99999.0,'11111222,11111222,99999999' 
TABS,ioos:station:wmo:42048:1,2014-12-03T19:30:00Z,27.9396,-96.8429,2.0,231.0501047,37.3666121,-99999.0,'11111222,11111222,99999999' 
TABS,ioos:station:wmo:42048:1,2014-12-03T20:00:00Z,27.9396,-96.8429,2.0,227.8430497,37.20426454,-99999.0,'11111222,11111222,99999999' 
TABS,ioos:station:wmo:42048:1,2014-12-03T20:30:00Z,27.9396,-96.8429,2.0,227.8952551,34.15443749,-99999.0,'11111222,11111222,99999999' 
TABS,ioos:station:wmo:42048:1,2014-12-03T21:00:00Z,27.9396,-96.8429,2.0,226.5097646,36.2235186,-99999.0,'11111222,11111222,99999999' 
TABS,ioos:station:wmo:42048:1,2014-12-03T21:30:00Z,27.9396,-96.8429,2.0,227.4426125,36.99409277,-99999.0,'11111222,11111222,99999999' 
TABS,ioos:station:wmo:42048:1,2014-12-03T22:00:00Z,27.9396,-96.8429,2.0,222.8548254,35.33059439,-99999.0,'11111222,11111222,99999999' 
TABS,ioos:station:wmo:42048:1,2014-12-03T22:30:00Z,27.9396,-96.8429,2.0,222.5749329,34.76421148,-99999.0,'11111222,11111222,99999999' 
TABS,ioos:station:wmo:42048:1,2014-12-03T23:00:00Z,27.9396,-96.8429,2.0,221.3545017,36.70238412,-99999.0,'11111222,11111222,99999999' 
TABS,ioos:station:wmo:42048:1,2014-12-03T23:30:00Z,27.9396,-96.8429,2.0,224.1610472,35.26719297,-99999.0,'11111222,11111222,99999999' 
TABS,ioos:station:wmo:42048:1,2014-12-04T00:00:00Z,27.9396,-96.8429,2.0,221.7731709,37.06164729,-99999.0,'11111222,11111222,99999999' 
TABS,ioos:station:wmo:42048:1,2014-12-04T00:30:00Z,27.9396,-96.8429,2.0,223.1995242,35.79019558,-99999.0,'11111222,11111222,99999999' 
TABS,ioos:station:wmo:42048:1,2014-12-04T01:00:00Z,27.9396,-96.8429,2.0,223.4832263,36.60559657,-99999.0,'11111222,11111222,99999999' 
TABS,ioos:station:wmo:42048:1,2014-12-04T01:30:00Z,27.9396,-96.8429,2.0,224.4447264,36.50256429,-99999.0,'11111222,11111222,99999999' 
TABS,ioos:station:wmo:42048:1,2014-12-04T02:00:00Z,27.9396,-96.8429,2.0,223.201944,38.76853363,-99999.0,'11111222,11111222,99999999' 
TABS,ioos:station:wmo:42048:1,2014-12-04T02:30:00Z,27.9396,-96.8429,2.0,223.7247371,37.50008533,-99999.0,'11111222,11111222,99999999' 
TABS,ioos:station:wmo:42048:1,2014-12-04T03:00:00Z,27.9396,-96.8429,2.0,224.2968446,35.7398657,-99999.0,'11111222,11111222,99999999' 
TABS,ioos:station:wmo:42048:1,2014-12-04T03:30:00Z,27.9396,-96.8429,2.0,223.5553913,39.83691002,-99999.0,'11111222,11111222,99999999' 
TABS,ioos:station:wmo:42048:1,2014-12-04T04:00:00Z,27.9396,-96.8429,2.0,230.3597668,35.42539202,-99999.0,'11111222,11111222,99999999' 
TABS,ioos:station:wmo:42048:1,2014-12-04T04:30:00Z,27.9396,-96.8429,2.0,226.5305274,34.14423085,-99999.0,'11111222,11111222,99999999' 
TABS,ioos:station:wmo:42048:1,2014-12-04T05:00:00Z,27.9396,-96.8429,2.0,223.4840036,31.01041115,-99999.0,'11111222,11111222,99999999' 
TABS,ioos:station:wmo:42048:1,2014-12-04T05:30:00Z,27.9396,-96.8429,2.0,226.7384598,31.92642949,-99999.0,'11111222,11111222,99999999' 
TABS,ioos:station:wmo:42048:1,2014-12-04T06:00:00Z,27.9396,-96.8429,2.0,226.2921861,36.05040499,-99999.0,'11111222,11111222,99999999' 
TABS,ioos:station:wmo:42048:1,2014-12-04T06:30:00Z,27.9396,-96.8429,2.0,225.946088,36.81700151,-99999.0,'11111222,11111222,99999999' 
TABS,ioos:station:wmo:42048:1,2014-12-04T07:00:00Z,27.9396,-96.8429,2.0,224.8577466,34.25235758,-99999.0,'11111222,11111222,99999999' 
TABS,ioos:station:wmo:42048:1,2014-12-04T07:30:00Z,27.9396,-96.8429,2.0,225.8722607,33.89555871,-99999.0,'11111222,11111222,99999999' 
TABS,ioos:station:wmo:42048:1,2014-12-04T08:00:00Z,27.9396,-96.8429,2.0,225.4850332,35.05961209,-99999.0,'11111222,11111222,99999999' 
TABS,ioos:station:wmo:42048:1,2014-12-04T08:30:00Z,27.9396,-96.8429,2.0,227.6455192,34.00566129,-99999.0,'11111222,11111222,99999999' 
TABS,ioos:station:wmo:42048:1,2014-12-04T09:00:00Z,27.9396,-96.8429,2.0,225.1465959,33.09270615,-99999.0,'11111222,11111222,99999999' 
TABS,ioos:station:wmo:42048:1,2014-12-04T09:30:00Z,27.9396,-96.8429,2.0,228.274436,37.87792233,-99999.0,'11111222,11111222,99999999' 
TABS,ioos:station:wmo:42048:1,2014-12-04T10:00:00Z,27.9396,-96.8429,2.0,226.3241388,36.40451208,-99999.0,'11111222,11111222,99999999' 
TABS,ioos:station:wmo:42048:1,2014-12-04T10:30:00Z,27.9396,-96.8429,2.0,227.1853073,35.78442259,-99999.0,'11111222,11111222,99999999' 
TABS,ioos:station:wmo:42048:1,2014-12-04T11:00:00Z,27.9396,-96.8429,2.0,227.977556,32.9390862,-99999.0,'11111222,11111222,99999999' 
TABS,ioos:station:wmo:42048:1,2014-12-04T11:30:00Z,27.9396,-96.8429,2.0,230.3966234,35.86079335,-99999.0,'11111222,11111222,99999999' 
TABS,ioos:station:wmo:42048:1,2014-12-04T12:00:00Z,27.9396,-96.8429,2.0,228.3319316,31.99410727,-99999.0,'11111222,11111222,99999999' 
TABS,ioos:station:wmo:42048:1,2014-12-04T12:30:00Z,27.9396,-96.8429,2.0,228.6350322,34.6826657,-99999.0,'11111222,11111222,99999999' 
TABS,ioos:station:wmo:42048:1,2014-12-04T13:00:00Z,27.9396,-96.8429,2.0,228.617833,33.83886818,-99999.0,'11111222,11111222,99999999' 
TABS,ioos:station:wmo:42048:1,2014-12-04T13:30:00Z,27.9396,-96.8429,2.0,228.0432875,33.16058654,-99999.0,'11111222,11111222,99999999' 
TABS,ioos:station:wmo:42048:1,2014-12-04T14:00:00Z,27.9396,-96.8429,2.0,224.0718506,32.75040916,-99999.0,'11111222,11111222,99999999' 
TABS,ioos:station:wmo:42048:1,2014-12-04T14:30:00Z,27.9396,-96.8429,2.0,228.0712504,35.49826052,-99999.0,'11111222,11111222,99999999' 
TABS,ioos:station:wmo:42048:1,2014-12-04T15:00:00Z,27.9396,-96.8429,2.0,229.6484897,31.05931422,-99999.0,'11111222,11111222,99999999' 
TABS,ioos:station:wmo:42048:1,2014-12-04T15:30:00Z,27.9396,-96.8429,2.0,231.8829802,34.92826935,-99999.0,'11111222,11111222,99999999' 
TABS,ioos:station:wmo:42048:1,2014-12-04T16:00:00Z,27.9396,-96.8429,2.0,233.0449191,35.1140385,-99999.0,'11111222,11111222,99999999' 